Terminal Aerodrome Forecast
Issued by NWS

Home | Current Version | Previous Version | Text Only | Print | Product List | Glossary On
Versions: 1 2 3 4 5 6 7 8 9 10 11 12
000
FTUS45 KVEF 260520
TAFDAG
TAF
KDAG 260520Z 2606/2706 26018KT P6SM SKC
     FM262200 25022G30KT P6SM SKC
     FM270500 25016KT P6SM SKC=

USA.gov is the U.S. government's official web portal to all federal, state and local government web resources and services.